Regional Weather Roundup
Issued by NWS

Home | Current Version | Previous Version | Graphics & Text | Print | Product List | Glossary Off
Versions: 1 2 3 4 5 6 7 8 9 10 11 12 13 14 15 16 17 18 19 20 21 22 23 24 25 26 27 28 29 30 31 32 33 34 35 36 37 38 39 40 41 42 43 44 45 46 47 48 49 50

000
ASUS43 KDMX 202007
RWRIA

WEATHER ROUNDUP FOR IOWA
NATIONAL WEATHER SERVICE DES MOINES IA
300 PM CDT MON OCT 20 2014

NOTE: "FAIR" INDICATES FEW OR NO CLOUDS BELOW 12,000 FEET WITH NO
SIGNIFICANT WEATHER AND/OR OBSTRUCTIONS TO VISIBILITY.

* - THESE STATIONS ARE NOT NWS STATIONS...THUS NOT UNDER NWS
QUALITY CONTROL.  THEY ALSO DO NOT REPORT WEATHER SUCH
AS PRECIPITATION OR FOG.

IAZ001>003-012>014-020>022-031>034-043>046-202100-
   NORTHWEST IOWA

CITY           SKY/WX    TMP DP  RH WIND       PRES   REMARKS
CARROLL *      SUNNY     70  37  30 NW8G17    30.03S
CHEROKEE *     SUNNY     68  39  34 NW8       30.03F
DENISON *      SUNNY     68  39  34 NW10G16   30.03S
LE MARS *      SUNNY     70  39  32 VRB6G13   30.05F
ORANGE CITY *  SUNNY     72  36  26 NW8       30.04F
SHELDON *      SUNNY     70  37  30 NW9G20    30.03S
SIOUX CITY     SUNNY     72  39  30 N10       30.05F
SPENCER        SUNNY     70  39  32 NW9       30.03F
STORM LAKE *   SUNNY     70  36  28 NW12G18   30.04F
$$

IAZ055>058-069>071-079>083-090>094-202100-
   SOUTHWEST IOWA

CITY           SKY/WX    TMP DP  RH WIND       PRES   REMARKS
ATLANTIC *     SUNNY     70  41  35 NW10      30.03F
AUDUBON *      SUNNY     70  30  23 NW7G16    30.05S
CLARINDA *     SUNNY     73  39  29 NW9       30.06S
COUNCIL BLFS * SUNNY     70  39  32 NW7       30.04F
CRESTON *      SUNNY     68  41  37 NW8G15    30.03F
HARLAN  *      SUNNY     70  41  35 NW12G18   30.08S
LAMONI         SUNNY     70  43  37 N12       30.03F
RED OAK *      SUNNY     72  39  30 VRB6G13   30.05F
SHENANDOAH *   SUNNY     72  39  30 N8        30.05F
$$

IAZ047>049-059>061-072>074-084-202100-
   CENTRAL IOWA

CITY           SKY/WX    TMP DP  RH WIND       PRES   REMARKS
AMES           SUNNY     70  39  32 NW12G23   30.00S
ANKENY *       SUNNY     70  43  37 NW13G22   30.00S
CHARITON *     SUNNY     70  41  35 NW14G21   30.01F
DES MOINES     SUNNY     71  40  32 NW15      30.00F
GRINNELL*      SUNNY     70  39  32 W14G21    29.99S
KNOXVILLE *    SUNNY     68  43  40 NW20      29.99F
MARSHALLTOWN   SUNNY     69  43  38 NW17G28   29.98S
PELLA *        SUNNY     70  45  40 NW10G17   30.01S
PERRY *          N/A     72  37  28 N12G18    30.01F
$$

IAZ004>006-015-016-023>025-035-036-202100-
   NORTH CENTRAL IOWA

CITY           SKY/WX    TMP DP  RH WIND       PRES   REMARKS
ALGONA *       SUNNY     68  39  34 NW13G21   30.01F
CLARION *      SUNNY     68  39  34 NW9G22    30.00S
ESTHERVILLE    SUNNY     68  37  32 N18G24    30.01F
FORT DODGE *   SUNNY     70  41  35 NW9G16    30.02F
MASON CITY     SUNNY     66  42  41 NW16      30.00S
FOREST CITY *  SUNNY     64  43  45 NW10G21   29.99S
IOWA FALLS *     N/A     68  39  34 NW17      30.00S
$$

IAZ007>011-017>019-026>030-037>042-050>054-066-202100-
   NORTHEAST IOWA

CITY           SKY/WX    TMP DP  RH WIND       PRES   REMARKS
CEDAR RAPIDS   SUNNY     67  43  41 NW22G29   29.94F
CHARLES CITY * SUNNY     66  41  39 NW17      29.97R
CLINTON *      MOSUNNY   66  43  42 NW14      29.95R
DECORAH *      SUNNY     64  43  45 NW10G17   29.93S
DUBUQUE        SUNNY     62  44  51 NW14      29.92F
MONTICELLO *   SUNNY     66  43  42 NW13G22   29.92S
OELWEIN *      SUNNY     64  43  45 N14G21    29.95S
WATERLOO       SUNNY     68  41  37 NW16G26   29.95S
$$

IAZ064-065-067-068-078-202100-
   EAST CENTRAL IOWA

CITY           SKY/WX    TMP DP  RH WIND       PRES   REMARKS
DAVENPORT      SUNNY     66  41  40 NW22      29.93S
IOWA CITY      SUNNY     68  44  42 N18G24    29.96S
MT. PLEASANT * SUNNY     68  43  40 NW14      29.97S
MUSCATINE *    SUNNY     68  43  40 NW15G22   29.95S
QUAD CITIES    MOSUNNY   67  44  43 NW15G24   29.92S
$$

IAZ062-063-075>077-085>089-095>099-202100-
   SOUTHEAST IOWA

CITY           SKY/WX    TMP DP  RH WIND       PRES   REMARKS
BURLINGTON     SUNNY     68  44  42 NW16G22   29.95S
FAIRFIELD *    SUNNY     68  41  37 NW13G21   29.97S
FORT MADISON * SUNNY     70  45  40 NW12G20   29.97S
KEOKUK *       SUNNY     68  45  42 NW13G22   29.97R
OSKALOOSA *      N/A     70  41  35 NW12G22   29.99S
CENTERVILLE *  SUNNY     68  43  40 W9G16     30.02F
OTTUMWA        SUNNY     68  43  40 NW13      29.98F
WASHINGTON *   MOSUNNY   70  43  37 NW17G23   29.96S
$$

ABBREVIATIONS USED IN REMARKS
   TC - TEMPERATURES IN CELSIUS
  WCI - WIND CHILL INDEX
   HX - HEAT INDEX
  VSB - VISIBILITY
$$



USA.gov is the U.S. government's official web portal to all federal, state and local government web resources and services.